Temp
23 23 23 23 22 21 20 20 20 20 20 20 20 20 20 20 19 19 19 19 19 19 19 19 18 18 18 18 18 18 19 19
21 21 21 21 22 21 20 20 20 20 20 20 19 19 19 19 21 21 20 20 19 19 18 18 18 18 18 18 18 17 17 18
19 20 20 20 20 21 21 20 19 19 18 19 20 20 19 18 16 17 19 20 20 18 17 17 17 19 19 18 16 16 17 17
19 18 18 19 20 19 21 20 20 19 17 16 16 16 16 16 16 16 16 16 16 17 17 16 16 17 19 17 16 17 15 16
17 17 17 17 17 16 17 17 17 17 17 16 15 16 16 15 16 16 15 15 15 16 17 17 16 15 16 16 16 14 15 16
16 16 17 17 16 17 16 16 16 15 17 15 15 15 16 16 16 15 15 15 15 14 15 16 16 14 14 15 16 15 15 15
15 15 16 15 15 15 15 14 15 16 14 14 14 15 15 15 14 13 13 14 14 14 14 14 14 14 14 14 15 15 15 16
14 14 14 15 14 14 14 15 14 14 14 14 13 14 13 13 13 13 13 13 13 13 13 13 13 14 15 15 15 15 15 15
13 14 15 16 15 14 14 14 13 13 13 12 13 13 13 13 13 13 12 12 13 13 13 13 13 13 13 14 14 14 14 14
14 14 15 14 14 14 13 13 13 12 13 13 13 13 13 13 12 12 11 11 11 11 11 11 11 11 13 13 13 12 13 12
14 13 14 13 14 13 13 12 12 12 13 13 12 12 12 12 11 11 11 11 11 10 10 9 9 10 11 12 12 11 11 12
14 13 14 13 13 13 12 12 12 12 12 12 12 11 11 11 11 10 10 10 10 10 9 9 8 8 9 11 12 12 11 11
14 14 13 13 13 13 13 12 12 12 12 11 11 11 11 10 10 10 9 9 9 8 8 8 8 7 8 9 11 11 11 11
14 14 13 14 14 13 13 12 11 11 11 11 10 10 10 10 9 9 8 8 8 8 7 7 7 7 6 6 6 8 9 9
14 14 13 13 13 13 12 12 11 11 11 10 10 10 10 9 9 8 8 8 7 7 7 6 6 7 7 7 6 6 6 8
15 14 14 13 13 13 12 11 10 9 9 9 9 9 9 9 8 8 7 7 7 7 7 6 6 6 6 6 6 5 6 6
14 14 13 13 12 12 11 11 9 9 9 9 9 8 8 7 7 7 6 6 6 6 6 5 5 4 4 4 4 5 6 4
13 12 11 11 11 10 10 9 9 9 8 7 7 7 6 6 6 5 5 5 4 4 4 4 4 4 3 3 3 3 4 4
12 11 10 9 9 9 9 8 7 6 6 5 5 5 4 4 4 4 3 3 3 3 3 3 2 2 2 1 1 2 2 3
11 10 8 9 9 8 7 7 6 5 5 4 4 3 2 2 2 2 2 1 1 1 1 1 1 0 0 0 0 0 0 1
Height
824 825 827 825 831 838 841 842 846 846 848 848 849 848 848 850 851 850 849 847 847 847 846 846 847 848 848 850 849 848 847 846
831 831 831 832 830 834 842 844 847 847 848 850 850 850 850 851 849 849 848 847 846 845 845 846 845 845 845 847 849 849 849 846
836 837 836 835 834 833 839 844 846 848 849 849 849 848 848 849 850 850 849 847 844 843 842 843 844 843 842 842 846 848 848 845
841 842 840 839 837 842 837 843 844 845 847 848 848 848 848 847 849 850 852 850 847 842 839 840 841 840 838 837 836 837 844 841
840 844 841 840 840 840 840 841 844 846 847 851 852 851 850 849 849 849 851 850 848 845 840 836 839 840 839 837 837 840 839 834
843 843 842 842 842 843 843 841 844 845 841 849 853 856 849 850 853 855 852 851 850 848 842 834 836 839 842 837 832 831 830 832
845 844 844 844 842 846 847 846 845 841 851 855 861 857 851 854 857 855 854 852 848 845 844 841 839 841 840 834 832 831 827 828
843 845 848 845 846 848 847 848 850 855 860 861 861 857 857 857 856 854 853 852 850 849 847 844 842 839 837 835 833 830 828 827
847 845 848 845 850 853 853 855 858 861 864 864 861 859 859 858 857 856 855 855 854 852 848 845 841 839 837 834 832 829 828 827
850 850 848 852 855 857 859 861 864 866 865 863 863 862 861 860 859 860 860 859 856 853 849 846 844 840 837 833 830 828 826 827
849 856 853 859 861 863 865 867 867 868 867 865 865 864 864 864 863 864 862 860 858 855 853 850 847 843 839 835 832 830 829 827
854 860 859 863 866 867 868 869 869 869 868 867 867 867 868 867 866 864 863 861 860 857 855 853 851 847 841 834 832 831 829 828
859 860 863 866 868 869 869 869 871 870 870 871 871 871 870 869 868 867 866 864 862 860 856 853 851 846 840 832 831 830 828 828
862 863 865 867 868 868 870 872 873 872 874 874 874 873 872 870 869 868 867 865 863 860 857 855 852 850 847 842 837 831 828 828
862 865 867 867 869 870 871 873 874 874 875 874 873 873 872 871 870 869 867 865 863 861 858 856 854 852 851 850 846 843 836 829
863 866 868 869 870 871 871 872 874 875 876 876 875 874 872 871 870 868 867 865 862 861 859 857 855 852 851 851 851 848 842 828
866 868 870 871 872 873 873 874 876 876 877 875 875 874 873 872 870 868 866 864 862 860 858 856 855 854 851 849 846 844 841 837
867 870 872 873 874 874 874 875 877 877 877 876 875 875 874 873 871 869 867 865 863 861 859 857 855 853 851 849 847 845 840 836
869 872 874 876 875 874 875 876 877 877 877 878 877 875 874 873 871 869 867 866 863 861 858 856 854 852 850 848 847 845 842 838
869 873 875 876 875 875 877 878 878 878 878 878 878 877 875 874 872 870 868 865 862 861 858 856 854 852 850 848 846 844 842 839
Wind_Speed
21 20 19 19 14 10 8 8 6 6 4 4 3 3 2 3 5 4 5 5 7 7 7 8 9 10 10 12 12 11 11 10
18 18 18 18 19 15 10 9 6 5 4 4 5 5 5 5 5 7 8 9 9 10 11 11 10 10 10 13 15 16 17 14
14 15 17 18 18 18 14 10 8 6 5 3 2 3 2 5 6 8 10 10 9 8 10 13 15 14 14 12 18 22 21 20
10 12 14 14 16 14 16 10 6 4 6 7 9 10 10 10 11 12 12 11 10 10 10 12 13 14 13 15 18 33 28 19
10 10 12 13 15 14 15 13 11 10 9 11 11 9 12 14 13 13 13 15 15 15 13 13 18 16 15 9 9 11 16 17
10 10 12 12 12 10 11 12 13 16 16 14 12 15 20 21 19 16 17 18 17 19 18 17 13 17 16 16 16 18 15 14
18 17 16 15 16 14 15 18 19 17 16 17 15 19 23 19 19 20 22 22 24 24 23 21 19 18 19 19 19 19 19 20
20 20 20 22 22 21 22 23 24 23 21 20 18 22 21 21 22 23 24 24 23 23 23 23 21 21 22 21 20 19 18 18
23 24 22 24 25 25 26 27 26 24 22 21 22 23 23 23 24 25 25 24 23 23 24 25 25 26 26 24 23 22 19 19
23 23 26 25 24 24 24 24 23 22 22 23 25 25 24 24 25 25 23 23 24 26 27 27 27 29 28 27 27 22 17 15
23 19 24 22 22 22 22 20 21 20 22 24 25 25 25 23 23 22 23 24 26 27 26 25 28 31 28 26 20 18 16 24
21 20 21 19 19 18 19 19 19 20 22 23 23 24 24 23 22 23 24 25 26 26 26 25 26 31 27 28 17 15 9 24
17 18 17 14 13 12 14 16 17 19 20 19 20 20 20 21 21 21 22 24 24 24 25 26 25 31 26 25 19 17 6 36
12 12 10 8 8 8 10 13 15 17 18 18 18 18 18 18 19 21 22 23 23 24 25 25 18 26 17 8 5 9 26 25
10 8 5 6 7 9 12 11 13 15 16 17 19 18 18 16 17 18 19 21 23 23 23 23 21 25 23 13 4 3 20 10
10 7 6 6 7 6 8 12 14 13 14 15 16 17 16 14 14 17 18 20 22 22 21 21 21 21 21 15 15 15 5 7
8 7 6 6 5 7 10 13 12 11 11 12 15 16 16 16 16 16 17 19 20 21 22 22 21 20 19 19 18 17 16 7
10 8 8 8 9 12 12 12 10 10 12 15 16 14 15 17 16 17 19 20 20 21 20 20 21 21 21 20 17 12 15 15
13 9 10 11 13 12 11 11 12 13 14 15 15 15 16 17 18 18 19 18 19 20 20 20 20 19 19 20 20 17 19 20
14 12 13 13 13 14 13 12 12 13 12 11 12 13 14 15 17 18 17 18 19 20 20 18 16 17 20 22 23 23 21 20
Wind_Direction
145 151 155 153 140 125 118 114 109 104 88 87 64 68 43 358 356 346 337 327 326 323 316 319 319 321 319 317 311 299 282 269
138 141 144 142 134 129 117 104 89 83 74 46 36 21 5 345 313 315 307 308 308 308 307 301 295 298 306 311 309 303 296 284
129 134 136 131 127 122 116 113 101 84 66 44 14 338 353 4 353 337 302 298 309 311 314 305 296 282 282 304 333 323 303 295
131 132 129 131 120 118 114 108 97 94 68 49 58 55 53 54 35 27 18 8 7 359 7 0 351 339 302 297 289 308 308 316
130 141 137 132 126 115 108 101 88 70 50 38 39 47 47 42 32 21 17 14 7 1 2 357 347 334 325 318 290 277 298 307
97 105 111 112 110 97 90 87 78 74 40 44 46 59 60 53 50 45 38 29 22 14 15 17 9 350 332 323 313 308 308 305
92 92 99 100 95 90 76 70 63 65 69 72 70 65 64 59 50 42 34 25 19 13 9 10 5 353 349 349 340 325 320 310
91 87 92 87 84 80 76 75 79 84 83 80 69 63 60 53 46 39 31 23 17 12 10 6 1 353 349 347 341 337 331 322
86 94 86 81 85 86 87 89 90 86 80 70 63 59 53 47 41 36 29 23 18 14 12 9 5 360 355 350 345 339 336 332
91 88 88 90 92 94 93 90 85 79 73 68 59 54 48 44 40 37 30 26 23 22 15 13 7 5 359 357 354 351 354 26
91 94 99 99 101 101 97 90 79 73 71 66 58 51 46 44 43 38 31 26 24 20 21 19 12 3 357 354 7 26 55 33
106 113 110 109 111 108 104 88 75 72 70 63 58 52 47 43 38 33 28 25 22 18 18 20 16 7 358 356 3 9 29 11
110 115 115 112 113 103 101 82 71 71 66 59 51 44 39 36 36 32 28 24 20 17 15 13 18 12 0 353 359 359 360 349
118 111 111 100 89 92 98 94 79 75 63 55 47 37 30 26 27 28 24 22 20 18 17 11 8 13 5 334 345 342 338 351
113 105 99 85 80 96 104 84 77 67 51 44 34 27 24 28 28 24 19 21 19 16 14 13 5 8 15 33 347 336 325 332
106 96 83 86 88 92 76 79 77 57 45 36 30 26 34 36 29 19 15 14 14 12 8 7 2 359 1 346 338 311 320 317
124 114 99 95 96 88 90 88 76 61 44 37 41 40 34 29 21 15 14 13 6 3 4 8 12 4 1 348 339 322 311 286
138 129 108 102 109 104 98 89 79 61 51 46 40 31 25 21 15 10 6 2 1 359 356 358 358 356 355 353 347 329 320 318
146 134 113 116 114 104 96 91 81 71 56 44 32 24 20 14 7 5 5 5 3 359 356 353 355 357 360 357 350 336 333 321
145 135 126 125 115 109 105 95 79 69 55 40 34 32 28 17 12 8 8 8 6 2 359 360 359 356 354 353 348 343 346 335